VE3CTP Weather Reports


time (UTC)temp
C
wind
direction
speed
KPH
gust
KPH
rain 1hr
cm
rain 24hr
cm
rain mn
cm
humidity
%
barometer
mb
20260510225520 18 265 3.2 12.9 0.00 0.00 0.00 100
20260510225020 17 194 0.0 17.7 0.00 0.00 0.00 100
20260510224520 18 248 12.9 14.5 0.00 0.00 0.00 100
20260510224020 17 320 1.6 11.3 0.00 0.00 0.00 100
20260510223520 17 305 3.2 12.9 0.00 0.00 0.00 100
20260510223020 17 289 0.0 16.1 0.00 0.00 0.00 100
20260510222520 18 258 0.0 12.9 0.00 0.00 0.00 100
20260510222020 18 272 0.0 12.9 0.00 0.00 0.00 100
20260510221520 18 5 1.6 6.4 0.00 0.00 0.00 100
20260510221020 18 302 1.6 12.9 0.00 0.00 0.00 100
20260510220520 18 324 3.2 12.9 0.00 0.00 0.00 100
20260510220020 19 279 6.4 22.5 0.00 0.00 0.00 100
20260510215520 18 240 11.3 16.1 0.00 0.00 0.00 100
20260510215020 19 248 11.3 12.9 0.00 0.00 0.00 100
20260510214520 18 309 3.2 14.5 0.00 0.00 0.00 100
20260510214020 18 271 1.6 8.0 0.00 0.00 0.00 100
20260510213520 18 303 3.2 9.7 0.00 0.00 0.00 100
20260510213020 18 251 0.0 11.3 0.00 0.00 0.00 100
20260510212520 19 248 1.6 12.9 0.00 0.00 0.00 100
20260510212020 20 196 0.0 11.3 0.00 0.00 0.00 100
20260510211520 19 234 3.2 12.9 0.00 0.00 0.00 100
20260510211020 18 327 0.0 6.4 0.00 0.00 0.00 100
20260510210520 18 260 4.8 16.1 0.00 0.00 0.00 100
20260510210020 18 277 0.0 9.7 0.00 0.00 0.00 100
20260510205520 19 281 3.2 12.9 0.00 0.00 0.00 100
20260510205020 18 310 1.6 4.8 0.00 0.00 0.00 100
20260510204520 19 317 0.0 11.3 0.00 0.05 0.00 100
20260510204020 18 42 0.0 12.9 0.00 0.05 0.00 100
20260510203520 20 236 9.7 11.3 0.00 0.05 0.00 100
20260510203020 19 8 6.4 9.7 0.00 0.05 0.00 100
20260510202520 18 278 3.2 17.7 0.00 0.05 0.00 100
20260510202020 19 302 0.0 19.3 0.00 0.05 0.00 100
20260510201520 19 299 1.6 11.3 0.00 0.05 0.00 100
20260510201020 19 9 0.0 8.0 0.00 0.05 0.00 100
20260510200520 20 267 0.0 11.3 0.00 0.05 0.00 100
20260510200020 18 358 4.8 11.3 0.00 0.05 0.00 100
20260510195520 20 262 8.0 24.1 0.00 0.05 0.00 100
20260510195020 20 236 12.9 19.3 0.00 0.05 0.00 100
20260510194521 20 264 12.9 22.5 0.00 0.13 0.00 100
20260510194020 20 279 3.2 19.3 0.00 0.13 0.00 100
20260510193520 20 316 3.2 14.5 0.00 0.13 0.00 100
20260510193020 20 296 6.4 9.7 0.00 0.13 0.00 100
20260510192520 18 305 3.2 6.4 0.00 0.13 0.00 100
20260510192020 18 182 0.0 17.7 0.00 0.13 0.00 100
20260510191520 20 310 4.8 17.7 0.00 0.13 0.00 100
20260510191020 20 255 8.0 17.7 0.00 0.13 0.00 100
20260510190520 18 240 0.0 11.3 0.00 0.13 0.00 100
20260510190020 18 300 4.8 29.0 0.00 0.13 0.00 100
20260510185520 20 288 3.2 8.0 0.00 0.13 0.00 100
20260510185020 20 312 0.0 14.5 0.00 0.13 0.00 100
20260510184520 18 63 3.2 9.7 0.00 0.13 0.00 100
20260510184020 20 247 4.8 6.4 0.00 0.13 0.00 100
20260510183520 18 315 3.2 22.5 0.00 0.13 0.00 100
20260510183020 18 333 0.0 9.7 0.00 0.13 0.00 100
20260510182520 17 32 3.2 9.7 0.00 0.13 0.00 100
20260510182020 18 61 3.2 9.7 0.00 0.13 0.00 100
20260510181520 20 272 0.0 19.3 0.00 0.13 0.00 100
20260510181020 20 347 1.6 9.7 0.00 0.13 0.00 100
20260510180520 18 295 1.6 11.3 0.00 0.13 0.00 100
20260510180020 17 251 6.4 14.5 0.00 0.13 0.13 100
20260510175520 17 11 1.6 12.9 0.00 0.13 0.13 100
20260510175020 18 271 1.6 17.7 0.00 0.13 0.13 100
20260510174520 19 237 11.3 27.4 0.00 0.13 0.13 100
20260510174020 18 253 8.0 11.3 0.00 0.13 0.13 100
20260510173520 16 95 6.4 14.5 0.00 0.13 0.13 100
20260510173020 17 285 0.0 3.2 0.00 0.13 0.13 100
20260510172520 16 29 0.0 8.0 0.00 0.13 0.13 100
20260510172020 17 73 4.8 6.4 0.00 0.13 0.13 100
20260510171520 16 98 3.2 20.9 0.00 0.13 0.13 100
20260510171020 17 71 8.0 8.0 0.00 0.13 0.13 100
20260510170520 16 1 1.6 17.7 0.00 0.13 0.13 100
20260510170020 15 244 3.2 22.5 0.00 0.13 0.13 100
20260510165520 15 32 8.0 14.5 0.00 0.13 0.13 100
20260510165020 16 250 0.0 20.9 0.00 0.13 0.13 100
20260510164520 15 54 19.3 19.3 0.00 0.13 0.13 100
20260510164021 16 265 3.2 11.3 0.00 0.13 0.13 100
20260510163521 15 241 0.0 19.3 0.00 0.13 0.13 100
20260510163021 14 61 19.3 22.5 0.00 0.13 0.13 100
20260510162521 15 57 12.9 12.9 0.00 0.13 0.13 100
20260510162021 15 53 9.7 16.1 0.00 0.13 0.13 100
20260510161521 13 70 12.9 16.1 0.00 0.13 0.13 100
20260510161021 15 8 1.6 14.5 0.00 0.13 0.13 100
20260510160521 15 338 1.6 6.4 0.00 0.13 0.13 100
20260510160021 14 84 6.4 11.3 0.00 0.13 0.13 100
20260510155521 14 59 1.6 12.9 0.00 0.13 0.13 100
20260510155021 15 260 8.0 11.3 0.00 0.13 0.13 100
20260510154521 15 85 4.8 12.9 0.00 0.13 0.13 100
20260510154021 15 52 4.8 9.7 0.00 0.13 0.13 100
20260510153521 16 303 4.8 4.8 0.00 0.13 0.13 100
20260510153021 16 240 0.0 4.8 0.00 0.13 0.13 100
20260510152521 15 257 4.8 8.0 0.00 0.13 0.13 100
20260510152021 15 78 8.0 9.7 0.00 0.13 0.13 100
20260510151521 15 296 0.0 6.4 0.00 0.13 0.13 100
20260510151021 16 29 4.8 11.3 0.00 0.13 0.13 100
20260510150521 16 251 9.7 11.3 0.00 0.13 0.13 100
20260510150021 16 303 0.0 8.0 0.00 0.13 0.13 100
20260510145521 15 7 0.0 9.7 0.00 0.13 0.13 100
20260510145021 15 340 1.6 9.7 0.00 0.13 0.13 100
20260510144521 16 286 4.8 4.8 0.00 0.13 0.13 100
20260510144021 16 309 0.0 1.6 0.00 0.13 0.13 100
20260510143521 16 309 1.6 6.4 0.00 0.13 0.13 100
20260510143021 16 327 0.0 6.4 0.00 0.13 0.13 100
20260510142521 15 64 0.0 11.3 0.00 0.13 0.13 100
20260510142021 15 191 0.0 8.0 0.00 0.13 0.13 100
20260510141521 15 278 8.0 12.9 0.00 0.13 0.13 100
20260510141021 15 226 8.0 8.0 0.00 0.13 0.13 100
20260510140521 14 358 1.6 6.4 0.00 0.13 0.13 100
20260510140021 13 50 3.2 6.4 0.00 0.13 0.13 100
20260510135521 15 236 0.0 6.4 0.00 0.13 0.13 100
20260510135021 13 358 3.2 9.7 0.00 0.13 0.13 100
20260510134521 15 247 0.0 3.2 0.00 0.13 0.13 100
20260510134021 15 239 0.0 6.4 0.00 0.13 0.13 100
20260510133521 14 63 0.0 3.2 0.00 0.13 0.13 100
20260510133021 16 271 3.2 6.4 0.00 0.13 0.13 100
20260510132521 16 275 4.8 4.8 0.00 0.13 0.13 100
20260510132021 16 185 0.0 6.4 0.00 0.13 0.13 100
20260510131521 17 347 0.0 3.2 0.00 0.13 0.13 100
20260510131021 17 288 0.0 0.0 0.00 0.13 0.13 100
20260510130521 17 315 0.0 6.4 0.00 0.13 0.13 100
20260510130021 16 357 0.0 4.8 0.00 0.13 0.13 100
20260510125521 14 57 4.8 9.7 0.00 0.13 0.13 100
20260510125021 17 4 0.0 6.4 0.00 0.13 0.13 100
20260510124521 17 237 0.0 4.8 0.00 0.13 0.13 100
20260510124021 16 21 0.0 3.2 0.00 0.13 0.13 100
20260510123521 16 14 0.0 3.2 0.00 0.13 0.13 100
20260510123021 16 23 0.0 3.2 0.00 0.13 0.13 100
20260510122521 16 320 0.0 3.2 0.00 0.13 0.13 100
20260510122021 15 355 0.0 6.4 0.00 0.13 0.13 100
20260510121521 15 305 0.0 4.8 0.00 0.13 0.13 100
20260510121021 15 305 0.0 0.0 0.00 0.13 0.13 100
20260510120521 15 305 0.0 4.8 0.00 0.13 0.13 100
20260510120021 15 262 0.0 1.6 0.00 0.13 0.13 100
20260510115521 15 309 0.0 4.8 0.00 0.13 0.13 100
20260510115021 14 344 0.0 6.4 0.00 0.13 0.13 100
20260510114521 14 295 0.0 6.4 0.00 0.13 0.13 100
20260510114021 13 4 0.0 0.0 0.00 0.13 0.13 100
20260510113521 13 4 0.0 0.0 0.00 0.13 0.13 100
20260510113021 12 4 0.0 0.0 0.00 0.13 0.13 100
20260510112521 12 4 0.0 0.0 0.00 0.13 0.13 100
20260510112021 11 4 0.0 0.0 0.00 0.13 0.13 100
20260510111521 11 4 0.0 0.0 0.00 0.13 0.13 100
20260510111021 10 4 0.0 0.0 0.00 0.13 0.13 100
20260510110521 8 4 0.0 0.0 0.00 0.13 0.13 100
20260510110021 7 4 0.0 0.0 0.00 0.13 0.13 100
20260510105521 7 4 0.0 0.0 0.00 0.13 0.13 100
20260510105021 7 4 0.0 0.0 0.00 0.13 0.13 100
20260510104521 7 4 0.0 0.0 0.00 0.13 0.13 100
20260510104021 7 4 0.0 0.0 0.00 0.13 0.13 100
20260510103521 6 4 0.0 0.0 0.00 0.13 0.13 100
20260510103021 6 4 0.0 0.0 0.00 0.13 0.13 100
20260510102521 6 4 0.0 0.0 0.00 0.13 0.13 100
20260510102021 6 4 0.0 0.0 0.00 0.13 0.13 100
20260510101521 6 4 0.0 0.0 0.00 0.13 0.13 100
20260510101021 6 4 0.0 0.0 0.00 0.13 0.13 100
20260510100521 6 4 0.0 0.0 0.00 0.13 0.13 100
20260510100021 7 4 0.0 0.0 0.00 0.13 0.13 100
20260510095521 7 4 0.0 0.0 0.00 0.13 0.13 100
20260510095021 7 4 0.0 0.0 0.00 0.13 0.13 100
20260510094521 7 4 0.0 0.0 0.00 0.13 0.13 100
20260510094021 7 4 0.0 0.0 0.00 0.13 0.13 100
20260510093521 7 4 0.0 0.0 0.00 0.13 0.13 100
20260510093021 7 4 0.0 0.0 0.00 0.13 0.13 100
20260510092521 7 4 0.0 0.0 0.00 0.13 0.13 100
20260510092021 7 4 0.0 0.0 0.00 0.13 0.13 100
20260510091521 7 4 0.0 0.0 0.00 0.13 0.13 100
20260510091021 7 4 0.0 0.0 0.00 0.13 0.13 100
20260510090521 7 4 0.0 0.0 0.00 0.13 0.13 100
20260510090021 8 4 0.0 0.0 0.00 0.13 0.13 100
20260510085521 8 4 0.0 0.0 0.00 0.13 0.13 100
20260510085021 7 4 0.0 6.4 0.00 0.13 0.13 100
20260510084521 7 80 4.8 8.0 0.00 0.13 0.13 100
20260510084021 7 73 3.2 8.0 0.00 0.13 0.13 100
20260510083521 7 61 0.0 14.5 0.00 0.13 0.13 100
20260510083021 7 73 3.2 11.3 0.00 0.13 0.13 100
20260510082521 8 63 1.6 12.9 0.00 0.13 0.13 100
20260510082021 7 66 4.8 16.1 0.00 0.13 0.13 100
20260510081521 8 80 9.7 11.3 0.00 0.13 0.13 100
20260510081022 8 52 4.8 14.5 0.00 0.13 0.13 100
20260510080521 8 28 4.8 12.9 0.00 0.13 0.13 100
20260510080022 8 64 9.7 19.3 0.00 0.13 0.13 100
20260510075522 8 88 9.7 20.9 0.00 0.13 0.13 100
20260510075022 8 66 14.5 20.9 0.00 0.13 0.13 100
20260510074522 8 78 8.0 11.3 0.00 0.13 0.13 100
20260510074022 8 71 8.0 14.5 0.00 0.13 0.13 100
20260510073522 8 70 8.0 16.1 0.00 0.13 0.13 100
20260510073022 8 66 8.0 22.5 0.00 0.13 0.13 100
20260510072522 8 95 11.3 17.7 0.00 0.13 0.13 100
20260510072022 8 84 3.2 17.7 0.00 0.13 0.13 100
20260510071522 8 75 11.3 20.9 0.00 0.13 0.13 100
20260510071022 8 81 14.5 25.7 0.00 0.13 0.13 100
20260510070522 9 59 12.9 30.6 0.00 0.13 0.13 100
20260510070022 9 54 24.1 33.8 0.00 0.13 0.13 100
20260510065522 10 18 9.7 17.7 0.00 0.13 0.13 100
20260510065022 10 77 8.0 8.0 0.00 0.13 0.13 100
20260510064522 11 19 0.0 0.0 0.00 0.13 0.13 100
20260510064022 11 19 0.0 0.0 0.00 0.13 0.13 100
20260510063522 11 19 0.0 0.0 0.00 0.13 0.13 100
20260510063022 11 19 0.0 0.0 0.00 0.13 0.13 100
20260510062522 11 19 0.0 0.0 0.00 0.13 0.13 100
20260510062022 11 19 0.0 0.0 0.00 0.13 0.13 100
20260510061522 11 19 0.0 0.0 0.00 0.13 0.13 100
20260510061022 11 19 0.0 0.0 0.00 0.13 0.13 100
20260510060522 11 19 0.0 9.7 0.00 0.13 0.13 100
20260510060022 11 63 0.0 0.0 0.00 0.13 0.13 100
20260510055522 11 63 0.0 3.2 0.00 0.13 0.13 100
20260510055022 12 21 0.0 6.4 0.00 0.13 0.13 100
20260510054522 12 15 0.0 4.8 0.00 0.13 0.13 100
20260510054022 12 42 0.0 3.2 0.00 0.13 0.13 100
20260510053522 12 97 3.2 4.8 0.00 0.13 0.13 100
20260510053022 12 29 0.0 6.4 0.00 0.13 0.13 100
20260510052522 12 68 3.2 9.7 0.00 0.13 0.13 100
20260510052022 12 57 0.0 12.9 0.00 0.13 0.13 100
20260510051522 12 63 0.0 9.7 0.00 0.13 0.13 100
20260510051022 12 88 4.8 4.8 0.00 0.13 0.13 100
20260510050522 12 80 3.2 8.0 0.00 0.13 0.13 100
20260510050022 12 59 3.2 9.7 0.00 0.13 0.13 100
20260510045522 12 33 0.0 6.4 0.00 0.13 0.13 100
20260510045022 12 98 3.2 6.4 0.00 0.13 0.13 100
20260510044522 12 46 1.6 4.8 0.00 0.13 0.13 100
20260510044022 12 28 0.0 8.0 0.00 0.13 0.13 100
20260510043522 12 63 1.6 12.9 0.00 0.13 0.13 100
20260510043022 12 95 8.0 8.0 0.00 0.13 0.13 100
20260510042522 12 60 3.2 17.7 0.00 0.13 0.13 100
20260510042022 13 70 4.8 8.0 0.00 0.13 0.13 100
20260510041522 13 85 0.0 8.0 0.00 0.13 0.13 100
20260510041022 13 50 6.4 11.3 0.00 0.13 0.13 100
20260510040522 13 49 9.7 16.1 0.00 0.13 0.13 100
20260510040022 13 30 6.4 12.9 0.00 0.13 0.13 100
20260510035522 14 54 4.8 19.3 0.00 0.13 0.13 100
20260510035022 14 70 16.1 30.6 0.00 0.13 0.13 100
20260510034522 15 64 22.5 22.5 0.00 0.13 0.13 100
20260510034022 15 21 0.0 3.2 0.00 0.13 0.13 100
20260510033522 15 355 0.0 3.2 0.00 0.13 0.13 100
20260510033022 15 56 0.0 11.3 0.00 0.13 0.13 100
20260510032522 15 81 8.0 8.0 0.00 0.13 0.13 100
20260510032022 15 94 0.0 11.3 0.00 0.13 0.13 100
20260510031522 15 46 0.0 4.8 0.00 0.13 0.13 100
20260510031022 15 54 1.6 12.9 0.00 0.13 0.13 100
20260510030522 16 56 4.8 16.1 0.00 0.13 0.13 100
20260510030022 16 35 4.8 14.5 0.00 0.13 0.13 100
20260510025522 16 40 4.8 9.7 0.00 0.13 0.13 100
20260510025022 16 47 0.0 8.0 0.00 0.13 0.13 100
20260510024522 16 78 0.0 6.4 0.00 0.13 0.13 100
20260510024022 16 338 3.2 3.2 0.00 0.13 0.13 100
20260510023522 16 315 0.0 3.2 0.00 0.13 0.13 100
20260510023022 16 18 0.0 3.2 0.00 0.13 0.13 100
20260510022522 16 295 0.0 3.2 0.00 0.13 0.13 100
20260510022022 16 295 0.0 3.2 0.00 0.13 0.13 100
20260510021522 16 9 0.0 8.0 0.00 0.13 0.13 100
20260510021022 16 337 0.0 3.2 0.00 0.13 0.13 100
20260510020522 16 309 0.0 6.4 0.00 0.13 0.13 100
20260510020022 16 306 0.0 0.0 0.00 0.13 0.13 100
20260510015522 16 306 0.0 0.0 0.00 0.13 0.13 100
20260510015022 16 306 0.0 0.0 0.00 0.13 0.13 100
20260510014522 16 306 0.0 0.0 0.00 0.13 0.13 100
20260510014022 17 306 0.0 0.0 0.00 0.13 0.13 100
20260510013522 17 306 0.0 0.0 0.00 0.13 0.13 100
20260510013022 17 306 0.0 0.0 0.00 0.13 0.13 100
20260510012522 17 306 0.0 6.4 0.00 0.13 0.13 100
20260510012022 17 262 0.0 0.0 0.00 0.13 0.13 100
20260510011522 17 262 0.0 0.0 0.00 0.13 0.13 100
20260510011022 17 262 0.0 4.8 0.00 0.13 0.13 100
20260510010522 17 300 0.0 0.0 0.00 0.13 0.13 100
20260510010022 17 300 0.0 1.6 0.00 0.13 0.13 100
20260510005522 17 296 0.0 0.0 0.00 0.13 0.13 100
20260510005022 17 296 0.0 4.8 0.00 0.13 0.13 100
20260510004522 18 264 0.0 4.8 0.00 0.13 0.13 100
20260510004022 18 247 0.0 16.1 0.00 0.13 0.13 100
20260510003522 18 264 1.6 8.0 0.00 0.13 0.13 100
20260510003022 18 298 0.0 11.3 0.00 0.13 0.13 100
20260510002522 18 244 3.2 8.0 0.00 0.13 0.13 100
20260510002022 18 225 0.0 8.0 0.00 0.13 0.13 100
20260510001522 18 302 0.0 11.3 0.00 0.13 0.13 100
20260510001022 19 260 3.2 19.3 0.00 0.13 0.13 100
20260510000522 19 313 3.2 16.1 0.00 0.13 0.13 100
20260510000022 19 288 9.7 25.7 0.00 0.13 0.13 100
20260509235522 19 272 8.0 14.5 0.00 0.13 0.13 100
20260509235022 19 292 6.4 17.7 0.00 0.13 0.13 100
20260509234522 19 347 3.2 20.9 0.00 0.13 0.13 100
20260509234022 20 296 1.6 9.7 0.00 0.13 0.13 100
20260509233522 20 310 1.6 14.5 0.00 0.13 0.13 100
20260509233023 20 313 6.4 12.9 0.00 0.13 0.13 100
20260509232523 20 334 1.6 8.0 0.00 0.13 0.13 100
20260509232023 20 270 8.0 20.9 0.00 0.13 0.13 100
20260509231523 20 319 3.2 16.1 0.00 0.13 0.13 100
20260509231023 20 253 16.1 19.3 0.00 0.13 0.13 100
20260509230523 20 316 8.0 30.6 0.00 0.13 0.13 100
20260509230023 20 288 3.2 29.0 0.00 0.13 0.13 100